Current weather by "City, St" or "zip code"  
 

Current Conditions: Houghton Lake, Roscommon County Airport, MI

Overcast


36.0 F

Last Updated on Oct 24 2020, 9:53 pm EDT
Humidity: 76%
Wind Speed: N 0.0 mph
Barometer 30.23 in
Dewpoint: 28.9 F
Visibility: 10.00 mi
Precip: --
Heat Index: NA
Wind Chill: NA
Current conditions at:

Houghton Lake, Roscommon County Airport, MI (KHTL)

Lat: 44.35111 Lon: 84.67417

Local Radar Image active severe weather and emergency alerts image image weather storm and storm spotter reports image weather observation monitoring service image
Local
Radar
Active
Alerts
Storm Reports Obs
Monitoring

Sign-up For Email & Text Message Weather Alert Notification Services



Advertise Here

Observation History for Houghton Lake, Roscommon County Airport, MI


Time Wind
(mph)
Vis
(mi)
Weather Precip (in) Temperature (F) Relative
Humidity
Wind
Chill
(F)
Heat
Index
(F)
Pressure
Air Dwpt altimeter
(in)
sea level
(mb)
Rmks
9:53 pm EDT N 0.0 10.00 Overcast -- 36.0 28.9 76% NA NA 30.23 1025.1
8:53 pm EDT NW 4.6 10.00 Mostly Cloudy -- 36.0 28.9 76% 32 NA 30.23 1025.1
7:53 pm EDT NW 6.9 10.00 Partly Cloudy -- 37.0 28.9 73% 32 NA 30.22 1024.9
6:53 pm EDT W 6.9 10.00 Overcast -- 38.0 28.0 68% 33 NA 30.20 1024.1
5:53 pm EDT SW 4.6 10.00 Overcast -- 39.0 30.0 70% 36 NA 30.20 1023.8
4:53 pm EDT W 5.8 10.00 Overcast -- 39.0 28.9 67% 35 NA 30.20 1023.9
3:53 pm EDT SW 5.8 10.00 Overcast -- 39.0 30.0 70% 35 NA 30.20 1023.9
2:53 pm EDT SW 6.9 10.00 Mostly Cloudy -- 38.0 30.9 76% 33 NA 30.22 1024.6
1:53 pm EDT SW 6.9 10.00 Overcast -- 39.0 30.9 73% 34 NA 30.22 1024.6
12:53 pm EDT SW 5.8 9.00 Overcast Trace 38.0 28.0 68% 34 NA 30.25 1025.5
11:53 am EDT SW 6.9 10.00 Mostly Cloudy -- 39.0 30.0 70% 34 NA 30.26 1025.7
10:53 am EDT N 0.0 10.00 Mostly Cloudy -- 37.0 28.0 70% NA NA 30.24 1025.4
9:53 am EDT NW 4.6 10.00 Fair -- 35.0 30.0 82% 31 NA 30.23 1024.9
8:53 am EDT NW 4.6 10.00 A Few Clouds -- 32.0 28.9 88% 27 NA 30.22 1024.6
7:53 am EDT NW 3.5 10.00 Fair -- 30.0 28.0 92% NA NA 30.21 1024.2
6:53 am EDT W 4.6 10.00 Fair -- 31.0 28.0 89% 26 NA 30.20 1024.0
5:53 am EDT NW 9.2 10.00 Partly Cloudy -- 33.0 28.9 85% 25 NA 30.18 1023.2
4:53 am EDT N 6.9 10.00 Mostly Cloudy -- 34.0 28.9 82% 28 NA 30.17 1022.7
3:53 am EDT NW 6.9 10.00 Overcast -- 34.0 30.0 85% 28 NA 30.15 1022.2
2:53 am EDT NW 8.1 10.00 Overcast -- 34.0 30.0 85% 27 NA 30.14 1021.6
1:53 am EDT NW 6.9 10.00 Overcast -- 35.0 30.9 85% 29 NA 30.12 1021.0
12:53 am EDT NW 9.2 10.00 Overcast -- 35.0 30.9 85% 28 NA 30.11 1020.4
11:53 pm EDT NW 11.5 G 20.7 10.00 Mostly Cloudy -- 35.0 30.9 85% 27 NA 30.09 1019.5
10:53 pm EDT NW 15.0 G 23.0 10.00 Mostly Cloudy -- 36.0 32.0 86% 27 NA 30.06 1018.5

Regional Weather Observation


Houghton Lake, Roscommon County Airport, MI (KHTL)

Overcast
36.0 F

Bellaire, Antrim County Airport, MI (KACB)

Overcast
37.0 F

Wexford County Airport, MI (KCAD)

Overcast
34.0 F

Cherry Capital Airport, MI (KTVC)

Overcast
37.0 F

Gaylord Regional Airport, MI (KGLR)

Mostly Cloudy
33.0 F

Charlevoix, Charlevoix Municipal Airport, MI (KCVX)

Overcast
39.0 F